Location: Buckeye Ditch
(40.9104°N, 122.9517°W)
Time: 15:31:21
(UTC+00:00)

A-11 Canister half - Pass Details

Date: 25 May 2025
Orbit: 1515 x 1684 km, 47.2° (Epoch: 14 June)

Event Time Altitude Azimuth Distance (km) Brightness Sun altitude
Rises 07:58:47 0° 262° (W) 4,783 11.5 -28.0°
Reaches altitude 10° 08:01:58 10° 265° (W) 3,776 11.0 -28.0°
Maximum altitude 08:11:26 65° 347° (NNW) 1,671 9.3 -28.1°
Drops below altitude 10° 08:20:40 10° 69° (ENE) 3,683 11.2 -28.0°
Sets 08:23:44 0° 73° (ENE) 4,660 11.8 -28.0°
